Regional Weather Roundup
Issued by NWS Upton, NY

Current Version | Previous Version | Graphics & Text | Print | Product List | Glossary Off
Versions: 1 2 3 4 5 6 7 8 9 10 11 12 13 14 15 16 17 18 19 20 21 22 23 24 25 26 27 28 29 30 31 32 33 34 35 36 37 38 39 40 41 42 43 44 45 46 47 48 49 50

000
ASUS41 KOKX 170508
RWROKX

REGIONAL WEATHER ROUNDUP
NATIONAL WEATHER SERVICE NEW YORK NY
1200 AM EST SUN DEC 17 2017

NOTE: "FAIR" INDICATES FEW OR NO CLOUDS BELOW 12,000 FEET WITH NO
SIGNIFICANT WEATHER AND/OR OBSTRUCTIONS TO VISIBILITY.

NYZ071-072-176-178-NJZ106-104-170600-
NEW YORK CITY METRO AREA

CITY           SKY/WX    TMP DP  RH WIND       PRES   REMARKS
Central Park   CLOUDY    34  21  59 VRB6      30.22R WCI  29
Bronx Bot Gard   N/A     32  21  64 N5        30.22R WCI  27
Bronx Lehman C   N/A     32  21  64 NW5         N/A  WCI  27
LaGuardia APRT CLOUDY    35  20  54 N8        30.20S WCI  29
Queens College   N/A     34  21  60 N6          N/A  WCI  29
Kennedy INTL   CLOUDY    34  22  61 N12       30.22R WCI  25
Breezy Point     N/A     36 N/A N/A N7          N/A  WCI  30
Brooklyn Coll    N/A     36  25  64 NW6         N/A  WCI  31
Staten Island    N/A     34  25  69 N8          N/A  WCI  27
Newark/Liberty CLOUDY    34  24  67 N7        30.21R WCI  28
Teterboro      CLOUDY    34  21  59 N5        30.20S WCI  30
$$

NYZ177-179-078>081-170600-
LONG ISLAND NEW YORK

CITY           SKY/WX    TMP DP  RH WIND       PRES   REMARKS
Jones Beach      N/A     34 N/A N/A N13         N/A  WCI  25
Wantagh          N/A     34  23  64 NW3         N/A
Matinecock PT    N/A     36 N/A N/A NW12        N/A  WCI  27
Farmingdale    CLOUDY    34  22  61 N6        30.19F WCI  29
MacArthur/ISP  CLOUDY    33  24  69 N10       30.19S WCI  25
Shirley        CLOUDY    32  22  66 N7        30.21R WCI  26
Mt Sinai Harb    N/A    N/A N/A N/A N9          N/A
Westhampton    CLOUDY    31  19  61 N9        30.21S WCI  23
East Hampton   FAIR      29  15  57 N8        30.20S WCI  21
Southold         N/A     30  18  59 N10         N/A  WCI  21
Montauk          N/A     32  16  51 N14       30.20S WCI  22
$$

NYZ052-065-067-170600-
HUDSON VALLEY

CITY           SKY/WX    TMP DP  RH WIND       PRES   REMARKS
White Plains   CLOUDY    31  21  66 N7        30.17S WCI  24
Larchmont Harb   N/A     32 N/A N/A NW6         N/A  WCI  26
Croton On Huds   N/A     32 N/A N/A N3          N/A
Somers           N/A     28  19  69 N1          N/A
Brewster         N/A     21  16  79 N1          N/A
Newburgh       CLOUDY    27  21  80 CALM      30.19S
Montgomery     CLOUDY    29  18  63 W3        30.18R
Otisville        N/A     28  19  69 N1          N/A
Warwick          N/A     30  21  69 N3          N/A
Suffern          N/A     32  21  64 N3          N/A
Poughkeepsie   CLEAR     21  14  74 CALM      30.20S
Albany         PTCLDY    15  12  88 CALM      30.21R
$$

NJZ001-105-106-008-010-013-015-019>022-104-170600-
NEW JERSEY

CITY           SKY/WX    TMP DP  RH WIND       PRES   REMARKS
Newark/Liberty CLOUDY    34  24  67 N7        30.21R WCI  28
Teterboro      CLOUDY    34  21  59 N5        30.20S WCI  30
Caldwell       CLOUDY    32  22  66 N3        30.21R
Somerville     CLOUDY    31  28  89 N5        30.19R WCI  26
Linden         CLOUDY    35  23  62 CALM      30.22R
Perth Amboy      N/A     36 N/A N/A NE3         N/A
Sussex         CLOUDY    30  21  69 NE3       30.19R
Andover        NOT AVBL
Trenton        CLOUDY    36  27  69 N5        30.20R WCI  32
Millville      PTCLDY    27  25  92 W3        30.21R
Atlantic City  CLOUDY    37  29  72 CALM      30.22R
Wrightstown    CLOUDY    34  27  76 CALM      30.18R
Toms River     CLOUDY    34  27  75 CALM      30.21
Belmar         CLOUDY    36  26  67 N5        30.21R WCI  32
$$

PAZ047>061-062-071-170600-
EASTERN PENNSYLVANIA

CITY           SKY/WX    TMP DP  RH WIND       PRES   REMARKS
Philadelphia   CLOUDY    37  29  72 SW3       30.21R
Allentown      CLOUDY    35  25  66 E5        30.19R WCI  31
Scranton       CLOUDY    28  21  75 CALM      30.17R
$$

CTZ002-004>006-009-010-012-RIZ004-006-007-MAZ004-011-015-170600-
SOUTHERN NEW ENGLAND
 IN CT

CITY           SKY/WX    TMP DP  RH WIND       PRES   REMARKS
Bradley INTL   CLEAR     20  11  68 CALM      30.20R
Hartford       CLEAR     26  11  52 NW3       30.21S
Danbury        CLEAR     21  15  78 CALM      30.20R
Wtrbury/Oxford PTCLDY    18  12  77 N3        30.17S
Norwalk Harbor   N/A    N/A N/A N/A N9          N/A
Bridgeport     CLEAR     29  16  58 N6        30.21S WCI  23
Meriden        CLEAR     18  12  77 S3        30.21R
New Haven      CLEAR     25  14  63 N5        30.21R WCI  19
Chester        FAIR      25  10  54 NW8       30.18S WCI  16
Groton         CLEAR     26  11  52 NW9       30.20R WCI  17
Wilimantic     PTCLDY    25  13  60 W5        30.19S WCI  19

 IN RI

CITY           SKY/WX    TMP DP  RH WIND       PRES   REMARKS
Providence     CLEAR     25  13  60 NW3       30.19R
Block Island   CLEAR     29  13  51 NW15G23   30.19R WCI  18
Westerly       CLEAR     28  12  51 NW9       30.20R WCI  19
 IN MA

CITY           SKY/WX    TMP DP  RH WIND       PRES   REMARKS
Boston         CLEAR     26   8  46 W12       30.17R WCI  16
Worcester      CLEAR     18   5  57 W6        30.10R WCI  10
Westfield      PTCLDY    16  12  84 CALM      30.18R
Provincetown   PTCLDY    29  13  51 NW16G25   30.15R WCI  17
Nantucket      CLEAR     29  16  58 NW18      30.15R WCI  16
$$

ANZ330-335-338-340-345-350-353-355-170600-
COASTAL MARINE OBSERVATIONS


STATION/POSITION TIME  SKY/WX   TEMP    WIND        PRES    VSBY  WAVE
                                AIR SEA DIR/SP/G                  HT/PER
                 (UTC)          (F)     (DEG/KT/KT) (MB)    (MI)  (FT/S)
NY HARB ENTRANCE 0450            39 50  330/ 12/ 14 1022.4          2/ 6
20 S FIRE ISLAND 0350            40 51  340/ 17/ 21 1022.0          5/ 6
GREAT SOUTH BAY  NOT AVBL
HUDSON CANYON    0350            48 55  290/ 25/ 31 1020.7          7/ 6
KINGS POINT      0448            35 41   20/  9/ 11 1023.6
EXECUTION ROCKS  0415            36     320/  8/ 14   N/A
WESTERN LI SOUND NOT AVBL
CENTRAL LI SOUND NOT AVBL
ROBBINS REEF     0448            35     360/ 10/ 11 1023.3
$$


>>>>>>>>>>>>>>>>>>>>>>>>>>>> KEY <<<<<<<<<<<<<<<<<<<<<<<<<<<
>                                                          <
>     SKY/WX - Sky Condition/Present Weather               <
>     TMP    - Temperature in Fahrenheit                   <
>     DP     - Dew Point in Fahrenheit                     <
>     RH     - Relative Humidity in Percent                <
>     WIND   - Direction (from) and Speed in MPH           <
>     PRES   - Mean Sea Level Pressure (inches of Hg)      <
>     WCI    - Wind Chill Index                            <
>     VSB    - VISIBILITY IN MILES                         <
>     HX     - HEAT INDEX                                  <
>     TC     - TEMPERATURE IN CELSIUS                      <
>     VRB    - VARIABLE WIND DIRECTION                     <
>                                                          <
>>>>>>>>>>>>>>>>>>>>>>>>>>>> KEY <<<<<<<<<<<<<<<<<<<<<<<<<<<



USA.gov is the U.S. government's official web portal to all federal, state and local government web resources and services.